Other Public Products
Issued by NWS Grand Forks, ND

Home | Current Version | Previous Version | Graphics & Text | Print | Product List | Glossary On
Versions: 1 2 3 4 5 6 7 8 9 10 11 12 13 14 15 16 17 18 19 20 21 22 23 24 25 26 27 28 29 30 31 32 33 34 35 36 37 38 39 40 41 42 43 44 45 46 47 48 49 50
000
FPUS83 KFGF 232110
OPUFGF
PRAIRIE TO PINES WEATHER ROUNDUP
NATIONAL WEATHER SERVICE EASTERN NORTH DAKOTA/GRAND FORKS ND
400 PM CDT WED APR 23 2014

 **SATELLITE DATA USED TO AUGMENT SKY COVER AT AUTOMATED STATIONS**
 *****  WEATHER ACROSS EASTERN NORTH DAKOTA  *****

CITY           SKY/WX    TMP DP  RH WIND       PRES   REMARKS
GRAND FORKS    LGT RAIN  44  40  85 SE21G33   29.86S FOG
GRAND FORKS AF LGT RAIN  42  42  99 SE23      29.86R FOG
GRAND CITY NWS   N/A     43 N/A N/A SE22        N/A
BUXTON         NOT AVBL
DEVILS LAKE    CLOUDY    39  34  81 SE26G33   29.74F
FARGO          LGT RAIN  44  38  79 SE25G39   29.83F
WAHPETON ARPT  CLOUDY    43  36  75 SE21G30   29.83R
$$

 *****  WEATHER ACROSS CENTRAL AND WESTERN NORTH DAKOTA  *****

CITY           SKY/WX    TMP DP  RH WIND       PRES   REMARKS
JAMESTOWN      CLOUDY    43  39  86 SE22G38   29.69F
BISMARCK       CLOUDY    55  45  68 S14       29.56R
MINOT          RAIN      46  43  89 E24G31    29.55S FOG
MINOT AFB      LGT RAIN  46  46  99 SE25G38   29.55S
GARRISON         N/A     50  44  80 S13       29.53S
WILLISTON      LGT RAIN  47  43  86 W18G25    29.53R
DICKINSON      CLOUDY    48  37  65 W32G43    29.56R
HETTINGER      PTSUNNY   54  35  48 NW28G40   29.62R
$$

 *****  OTHER OBSERVATIONS NORTHEAST NORTH DAKOTA  *****

CITY           SKY/WX    TMP DP  RH WIND       PRES   REMARKS
WALHALLA         N/A     43  43 100 SE24G30   29.84F
LANGDON        CLOUDY    41  39  93 SE24G36   29.80R
CAVALIER       CLOUDY    43  39  87 SE16G24   29.86S FOG
GRAFTON        LGT RAIN  43  43 100 SE14G21   29.86S
CANDO          MIX PCPN  41  41 100 SE28G37   29.74F
FORT TOTTEN      N/A     42  40  93 SE17      29.95S
ROLLA          MIX PCPN  41  41 100 SE29      29.74S
RUGBY          MIX PCPN  43  41  93 SE26G41   29.66S
 ***** THE ABOVE OBSERVATIONS ARE NON NWS ARE NOT QUALITY
        CONTROLLED AND MAY MIS-REPORT RAIN FOR SNOW...
$$

 *****  OTHER OBSERVATIONS SOUTHEAST NORTH DAKOTA *****

CITY           SKY/WX    TMP DP  RH WIND       PRES   REMARKS
COOPERSTOWN    MIX PCPN  39  39 100 SE24G30   29.77S
VALLEY CITY    CLOUDY    41  41 100 SE20G32   29.77R
OAKES          CLOUDY    46  39  76 SE24G35   29.71S
GWINNER        CLOUDY    45  41  87 SE25G36   29.76F
BUFFALO        NOT AVBL
WYNDMERE       NOT AVBL
 ***** THE ABOVE OBSERVATIONS ARE NON NWS ARE NOT QUALITY
       CONTROLLED AND MAY MIS-REPORT RAIN FOR SNOW...
$$

  *****  WEATHER ACROSS NORTHERN MINNESOTA  *****

CITY           SKY/WX    TMP DP  RH WIND       PRES   REMARKS
FLAG ISLAND    PTSUNNY   52  21  30 E7G17     29.93F
WARROAD        CLOUDY    55  28  35 SE16      29.91F
ROSEAU         CLOUDY    57  21  24 SE17      29.90F
HALLOCK        LGT RAIN  46  41  81 S18       29.87S
THF RVR FALLS  CLOUDY    45  36  70 SE13      29.89S
HALSTAD          N/A     42  39  91 SE17        N/A
FOSSTON        DRIZZLE   43  37  81 SE14G23   29.90S
BAUDETTE       CLOUDY    56  23  27 SE13G23   29.93F
WASKISH        CLOUDY    55  27  33 SE14G20   29.93F
CROOKSTON      LGT RAIN  43  43 100 S16       29.89R
$$
  *****  WEATHER ACROSS CENTRAL AND WEST MINNESOTA  *****

CITY           SKY/WX    TMP DP  RH WIND       PRES   REMARKS
BEMIDJI        CLOUDY    50  24  37 SE20G26   29.92S
PARK RAPIDS    RAIN      39  37  92 SE12G21   29.93F FOG
WADENA         RAIN      37  36  93 SE16      29.93F
DETROIT LAKES  RAIN      37  37 100 SE24G35   29.86F
MOORHEAD       RAIN      43  43 100 SE18G26   29.86R
FERGUS FALLS   CLOUDY    41  39  93 SE25G32   29.81S
ELBOW LAKE     RAIN      41  37  86 SE25G44   29.79F
MORRIS MN      CLOUDY    43  36  75 SE29G36   29.81F
STAPLES        RAIN      37  36  93 SE7       29.97R
WHEATON        CLOUDY    45  39  81 SE31G40   29.80R THUNDER
$$
  *****  WEATHER ELSEWHERE ACROSS MINNESOTA  *****

CITY           SKY/WX    TMP DP  RH WIND       PRES   REMARKS
DULUTH         CLOUDY    48  25  40 E15       30.03F
INTRNTL FALLS  CLOUDY    55  24  30 SE15G21   29.98F
ELY            CLOUDY    52  18  25 SE14      30.03F
CLOQUET        CLOUDY    48  23  37 E9        30.03F
BRAINERD       LGT RAIN  46  35  65 SE10      29.97F
HIBBING        CLOUDY    53  22  29 SE14      30.00F
ALEXANDRIA     CLOUDY    40  37  89 E21G29    29.90F
SAINT CLOUD    LGT RAIN  41  37  86 E10G18    29.97F FOG
MINNEAPOLIS    LGT RAIN  41  37  86 E20       30.01F
$$

  *****  WEATHER ACROSS SOUTH DAKOTA  *****

CITY           SKY/WX    TMP DP  RH WIND       PRES   REMARKS
SIOUX FALLS    PTSUNNY   61  40  45 SE24G38   29.66F
BROOKINGS      NOT AVBL
WATERTOWN      PTSUNNY   51  36  56 SE21G32   29.70F
HURON          MOSUNNY   68  40  35 SE22G36   29.55F
SISSETON         N/A     42  38  85 S22G33    29.77R
ABERDEEN       CLOUDY    58  39  49 SE25G40   29.61F
MITCHELL       PTSUNNY   69  42  37 SE26G37   29.56F
PIERRE         CLOUDY    73  44  35 S7        29.48F
MOBRIDGE       CLOUDY    61  46  57 S12       29.53R
RAPID CITY     PTSUNNY   54  39  57 N35G48    29.61R
$$

  *****  SOME WEATHER IN NEARBY STATES *****

CITY           SKY/WX    TMP DP  RH WIND       PRES   REMARKS
GLASGOW MT     PTSUNNY   58  25  28 W25G39    29.55R
GREAT FALLS MT MOSUNNY   49  22  34 SW24G36   29.66S
CHEYENNE WY    CLOUDY    54  24  31 NW26G36   29.69R
SCOTTSBLUFF NE MOSUNNY   65  20  17 W26G44    29.66S
OMAHA NE       LGT RAIN  54  44  69 SE23      29.72S
DES MOINES IA  LGT RAIN  48  40  73 SE18G25   29.92F
DAVENPORT IA   CLOUDY    55  30  38 E9        30.08F
CHICAGO IL     PTSUNNY   49  23  36 NE9G18    30.12F
EAU CLAIRE WI  CLOUDY    53  24  32 SE9       30.05F
LA CROSSE WI   LGT RAIN  48  34  58 E10       30.08F
$$

  *****  SOME NATIONAL WEATHER *****

CITY           SKY/WX    TMP DP  RH WIND       PRES   REMARKS
LA GUARDIA NY  PTSUNNY   57  33  40 NW28G39   29.63R
RALEIGH NC     SUNNY     71  26  18 N10G24    29.83F
ATLANTA GA     SUNNY     76  34  21 NW14G20   29.90F
NEW ORLEANS LA MOSUNNY   82  57  42 VRB3      29.91F
OKLAHOMA CITY  PTSUNNY   86  52  30 S20G32    29.75F
ALBUQUERQUE NM PTSUNNY   75  14  10 W21G26    29.77F
SALT LAKE CITY MOSUNNY   51  21  30 N7        30.05S
LOS ANGELES CA PTSUNNY   67  50  54 W16       29.96F
BOISE ID       CLOUDY    52  31  44 SW6       30.01F
SEATTLE WA     CLOUDY    51  42  71 SW13      29.90F
$$

*** WEATHER ACROSS MANITOBA...SASKATCHEWAN AND ONTARIO ***
                ***ONTARIO***

CITY           SKY/WX    TMP DP  RH WIND       PRES   REMARKS
GERALDTON      MOSUNNY   50  27  40 NW6       30.08S
THUNDER BAY    CLOUDY    52  21  30 S13       30.10F
SIOUX LOOKOUT  CLOUDY    54  21  28 S7        30.03F
TORONTO        MOSUNNY   48  18  29 N21G31    29.96F
BIG TROUT LK   MOSUNNY   46  21  36 S6        30.09F
PICKLE LAKE    PTSUNNY   54  21  28 N5        30.05F
DRYDEN         PTSUNNY   54  21  28 S10       30.01F
KENORA         CLOUDY    54  23  30 E9        29.98F
$$
                *** MANITOBA***

CITY           SKY/WX    TMP DP  RH WIND       PRES   REMARKS
BRANDON        LGT RAIN  45  43  93 E17       29.77S
DAUPHIN        LGT RAIN  45  36  70 SE15G23   29.81F
ISLAND LAKE    MOSUNNY   54  45  71 N2        30.04F
PILOT MOUND      N/A     41  39  93 SE23G30     N/A
THE PAS        CLOUDY    52  27  37 E23       29.92F
THOMPSON       MOSUNNY   37  27  65 NE15      30.15R
WINNIPEG       CLOUDY    57  30  35 E16G24    29.86F
LYNN LAKE      SUNNY     36  25  64 E18G24    30.14S
CHURCHILL      PTSUNNY   25  19  80 NE13      30.34R WCI  13
GILLAM         CLOUDY    30  25  80 NE13      30.26R WCI  20
$$
                ***SASKATCHEWAN***

CITY           SKY/WX    TMP DP  RH WIND       PRES   REMARKS
ESTEVAN        LGT RAIN  46  45  93 SE22G29   29.51S FOG
KINDERSLEY     LGT RAIN  46  43  87 W15G22    29.41R
LLOYDMINSTER   LGT RAIN  37  36  93 SE18G31   29.48R FOG
PRINCE ALBERT  CLOUDY    52  30  43 E17G28    29.64R
REGINA         LGT RAIN  45  43  93 SE18G31   29.50S
YORKTON        LGT RAIN  45  39  81 E23G32    29.65F



USA.gov is the U.S. government's official web portal to all federal, state and local government web resources and services.